Time,TemperatureF,DewpointF,PressureIn,WindDirection,WindDirectionDegrees,WindSpeedMPH,WindSpeedGustMPH,Humidity,HourlyPrecipIn,Conditions,Clouds,dailyrainin,SoftwareType,DateUTC
2013-02-25 00:02:00,29.0,26.2,30.09,North,355,9.0,13.0,89,0.00,,SKC,0.00,VWS V14.01,2013-02-25 06:02:00,
2013-02-25 00:06:00,28.9,25.8,30.09,North,355,9.0,13.0,88,0.00,,SKC,0.00,VWS V14.01,2013-02-25 06:06:00,
2013-02-25 00:10:00,28.8,25.7,30.09,North,5,11.0,15.0,88,0.00,,SKC,0.00,VWS V14.01,2013-02-25 06:10:00,
2013-02-25 00:14:00,28.8,26.0,30.09,NW,321,5.0,15.0,89,0.00,,SKC,0.00,VWS V14.01,2013-02-25 06:14:00,
2013-02-25 00:22:00,28.6,25.5,30.09,North,350,10.0,15.0,88,0.00,,SKC,0.00,VWS V14.01,2013-02-25 06:22:00,
2013-02-25 00:26:00,28.7,25.6,30.09,North,5,13.0,15.0,88,0.00,,SKC,0.00,VWS V14.01,2013-02-25 06:26:00,
2013-02-25 00:29:00,28.6,25.8,30.09,North,11,6.0,15.0,89,0.00,,SKC,0.00,VWS V14.01,2013-02-25 06:29:00,
2013-02-25 00:30:00,28.6,25.8,30.09,NNW,348,9.0,10.0,89,0.00,,SKC,0.00,VWS V14.01,2013-02-25 06:30:00,
2013-02-25 00:34:00,28.5,25.7,30.09,North,9,9.0,14.0,89,0.00,,SKC,0.00,VWS V14.01,2013-02-25 06:34:00,
2013-02-25 00:38:00,28.4,25.6,30.09,NNE,19,7.0,14.0,89,0.00,,SKC,0.00,VWS V14.01,2013-02-25 06:38:00,
2013-02-25 00:42:00,28.2,25.4,30.10,NW,325,8.0,14.0,89,0.00,,SKC,0.00,VWS V14.01,2013-02-25 06:42:00,
2013-02-25 00:46:00,28.1,25.3,30.10,NNW,344,7.0,14.0,89,0.00,,SKC,0.00,VWS V14.01,2013-02-25 06:46:00,
2013-02-25 00:54:00,28.1,25.3,30.10,NE,54,5.0,14.0,89,0.00,,SKC,0.00,VWS V14.01,2013-02-25 06:54:00,
2013-02-25 00:58:00,28.0,24.9,30.10,North,355,5.0,14.0,88,0.00,,SKC,0.00,VWS V14.01,2013-02-25 06:58:00,
2013-02-25 01:02:00,28.0,25.2,30.10,North,10,7.0,9.0,89,0.00,,SKC,0.00,VWS V14.01,2013-02-25 07:02:00,
2013-02-25 01:06:00,28.0,24.9,30.10,North,360,9.0,11.0,88,0.00,,SKC,0.00,VWS V14.01,2013-02-25 07:06:00,
2013-02-25 01:14:00,27.9,25.1,30.10,North,360,7.0,11.0,89,0.00,,SKC,0.00,VWS V14.01,2013-02-25 07:14:00,
2013-02-25 01:23:00,27.9,25.1,30.10,NNE,17,7.0,11.0,89,0.00,,SKC,0.00,VWS V14.01,2013-02-25 07:23:00,
2013-02-25 01:27:00,27.9,25.1,30.10,North,355,7.0,11.0,89,0.00,,SKC,0.00,VWS V14.01,2013-02-25 07:27:00,
2013-02-25 01:31:00,28.0,25.2,30.10,North,5,6.0,10.0,89,0.00,,SKC,0.00,VWS V14.01,2013-02-25 07:31:00,
2013-02-25 01:35:00,28.0,25.2,30.10,North,360,9.0,11.0,89,0.00,,SKC,0.00,VWS V14.01,2013-02-25 07:35:00,
2013-02-25 01:39:00,28.0,24.9,30.10,North,355,7.0,11.0,88,0.00,,SKC,0.00,VWS V14.01,2013-02-25 07:39:00,
2013-02-25 01:43:00,27.9,24.8,30.10,NNW,345,7.0,11.0,88,0.00,,SKC,0.00,VWS V14.01,2013-02-25 07:43:00,
2013-02-25 01:47:00,27.9,24.8,30.09,NE,45,6.0,11.0,88,0.00,,SKC,0.00,VWS V14.01,2013-02-25 07:47:00,
2013-02-25 01:55:00,27.8,25.0,30.09,North,355,6.0,11.0,89,0.00,,SKC,0.00,VWS V14.01,2013-02-25 07:55:00,
2013-02-25 01:59:00,27.8,25.0,30.09,North,360,7.0,11.0,89,0.00,,SKC,0.00,VWS V14.01,2013-02-25 07:59:00,
2013-02-25 02:03:00,27.8,25.0,30.09,NNW,344,4.0,8.0,89,0.00,,SKC,0.00,VWS V14.01,2013-02-25 08:03:00,
2013-02-25 02:07:00,27.8,25.0,30.09,NNW,332,5.0,9.0,89,0.00,,SKC,0.00,VWS V14.01,2013-02-25 08:07:00,
2013-02-25 02:11:00,27.8,25.0,30.10,North,5,6.0,9.0,89,0.00,,SKC,0.00,VWS V14.01,2013-02-25 08:11:00,
2013-02-25 02:19:00,27.8,25.0,30.10,WNW,295,4.0,9.0,89,0.00,,SKC,0.00,VWS V14.01,2013-02-25 08:19:00,
2013-02-25 02:27:00,27.7,24.9,30.09,North,5,2.0,10.0,89,0.00,,SKC,0.00,VWS V14.01,2013-02-25 08:27:00,
2013-02-25 02:29:00,27.7,25.2,30.09,North,360,7.0,10.0,90,0.00,,SKC,0.00,VWS V14.01,2013-02-25 08:29:00,
2013-02-25 02:31:00,27.7,24.9,30.08,North,355,8.0,9.0,89,0.00,,SKC,0.00,VWS V14.01,2013-02-25 08:31:00,
2013-02-25 02:35:00,27.6,24.8,30.08,North,5,2.0,9.0,89,0.00,,SKC,0.00,VWS V14.01,2013-02-25 08:35:00,
2013-02-25 02:39:00,27.6,24.8,30.08,North,355,5.0,10.0,89,0.00,,SKC,0.00,VWS V14.01,2013-02-25 08:39:00,
2013-02-25 02:43:00,27.5,24.7,30.08,North,355,4.0,11.0,89,0.00,,SKC,0.00,VWS V14.01,2013-02-25 08:43:00,
2013-02-25 02:47:00,27.5,24.7,30.08,North,360,5.0,12.0,89,0.00,,SKC,0.00,VWS V14.01,2013-02-25 08:47:00,
2013-02-25 02:51:00,27.4,24.6,30.08,NNW,333,5.0,12.0,89,0.00,,SKC,0.00,VWS V14.01,2013-02-25 08:51:00,
2013-02-25 02:55:00,27.4,24.6,30.09,NNE,26,3.0,12.0,89,0.00,,SKC,0.00,VWS V14.01,2013-02-25 08:55:00,
2013-02-25 03:03:00,27.4,24.6,30.10,North,355,6.0,7.0,89,0.00,,SKC,0.00,VWS V14.01,2013-02-25 09:03:00,
2013-02-25 03:07:00,27.4,24.6,30.10,North,5,1.0,7.0,89,0.00,,SKC,0.00,VWS V14.01,2013-02-25 09:07:00,
2013-02-25 03:15:00,27.4,24.6,30.10,North,11,5.0,7.0,89,0.00,,SKC,0.00,VWS V14.01,2013-02-25 09:15:00,
2013-02-25 03:19:00,27.4,24.6,30.10,ENE,59,2.0,7.0,89,0.00,,SKC,0.00,VWS V14.01,2013-02-25 09:19:00,
2013-02-25 03:23:00,27.4,24.6,30.09,NNE,17,8.0,8.0,89,0.00,,SKC,0.00,VWS V14.01,2013-02-25 09:23:00,
2013-02-25 03:27:00,27.3,24.5,30.09,North,360,5.0,8.0,89,0.00,,SKC,0.00,VWS V14.01,2013-02-25 09:27:00,
2013-02-25 03:31:00,27.2,24.4,30.09,North,360,4.0,8.0,89,0.00,,SKC,0.00,VWS V14.01,2013-02-25 09:31:00,
2013-02-25 03:35:00,27.2,24.4,30.09,NNW,348,9.0,9.0,89,0.00,,SKC,0.00,VWS V14.01,2013-02-25 09:35:00,
2013-02-25 03:39:00,27.1,24.3,30.09,North,360,7.0,10.0,89,0.00,,SKC,0.00,VWS V14.01,2013-02-25 09:39:00,
2013-02-25 03:43:00,27.0,24.2,30.09,NNE,17,3.0,10.0,89,0.00,,SKC,0.00,VWS V14.01,2013-02-25 09:43:00,
2013-02-25 03:47:00,27.0,24.2,30.08,North,355,5.0,10.0,89,0.00,,SKC,0.00,VWS V14.01,2013-02-25 09:47:00,
2013-02-25 03:51:00,27.0,24.2,30.08,North,360,6.0,10.0,89,0.00,,SKC,0.00,VWS V14.01,2013-02-25 09:51:00,
2013-02-25 03:55:00,27.0,24.2,30.08,North,360,6.0,10.0,89,0.00,,SKC,0.00,VWS V14.01,2013-02-25 09:55:00,
2013-02-25 03:59:00,26.9,24.1,30.07,North,355,8.0,10.0,89,0.00,,SKC,0.00,VWS V14.01,2013-02-25 09:59:00,
2013-02-25 04:03:00,26.9,24.1,30.08,North,355,6.0,11.0,89,0.00,,SKC,0.00,VWS V14.01,2013-02-25 10:03:00,
2013-02-25 04:11:00,26.8,24.0,30.08,North,360,9.0,13.0,89,0.00,,SKC,0.00,VWS V14.01,2013-02-25 10:11:00,
2013-02-25 04:15:00,26.8,24.0,30.09,NNW,346,9.0,13.0,89,0.00,,SKC,0.00,VWS V14.01,2013-02-25 10:15:00,
2013-02-25 04:23:00,26.7,23.9,30.09,North,355,10.0,13.0,89,0.00,,SKC,0.00,VWS V14.01,2013-02-25 10:23:00,
2013-02-25 04:27:00,26.7,23.9,30.08,NNW,334,5.0,13.0,89,0.00,,SKC,0.00,VWS V14.01,2013-02-25 10:27:00,
2013-02-25 04:29:00,26.7,23.9,30.08,North,355,5.0,13.0,89,0.00,,SKC,0.00,VWS V14.01,2013-02-25 10:29:00,
2013-02-25 04:35:00,26.5,23.7,30.08,North,360,8.0,12.0,89,0.00,,SKC,0.00,VWS V14.01,2013-02-25 10:35:00,
2013-02-25 04:39:00,26.5,23.7,30.09,North,355,9.0,12.0,89,0.00,,SKC,0.00,VWS V14.01,2013-02-25 10:39:00,
2013-02-25 04:43:00,26.5,24.0,30.07,North,360,6.0,12.0,90,0.00,,SKC,0.00,VWS V14.01,2013-02-25 10:43:00,
2013-02-25 04:47:00,26.4,23.9,30.08,North,360,6.0,12.0,90,0.00,,SKC,0.00,VWS V14.01,2013-02-25 10:47:00,
2013-02-25 04:51:00,26.4,23.9,30.08,North,360,10.0,13.0,90,0.00,,SKC,0.00,VWS V14.01,2013-02-25 10:51:00,
2013-02-25 04:59:00,26.3,23.5,30.09,NE,40,2.0,13.0,89,0.00,,SKC,0.00,VWS V14.01,2013-02-25 10:59:00,
2013-02-25 05:03:00,26.3,23.5,30.09,North,355,6.0,9.0,89,0.00,,SKC,0.00,VWS V14.01,2013-02-25 11:03:00,
2013-02-25 05:11:00,26.2,23.4,30.09,NNW,342,7.0,12.0,89,0.00,,SKC,0.00,VWS V14.01,2013-02-25 11:11:00,
2013-02-25 05:19:00,26.1,23.3,30.08,North,355,10.0,12.0,89,0.00,,SKC,0.00,VWS V14.01,2013-02-25 11:19:00,
2013-02-25 05:23:00,26.1,23.3,30.08,North,355,3.0,12.0,89,0.00,,SKC,0.00,VWS V14.01,2013-02-25 11:23:00,
2013-02-25 05:29:00,26.0,23.5,30.09,North,11,6.0,12.0,90,0.00,,SKC,0.00,VWS V14.01,2013-02-25 11:29:00,
2013-02-25 05:31:00,26.0,23.5,30.09,North,355,8.0,8.0,90,0.00,,SKC,0.00,VWS V14.01,2013-02-25 11:31:00,
2013-02-25 05:35:00,26.0,23.5,30.09,North,9,4.0,9.0,90,0.00,,SKC,0.00,VWS V14.01,2013-02-25 11:35:00,
2013-02-25 05:39:00,26.0,23.5,30.09,NNW,327,6.0,9.0,90,0.00,,SKC,0.00,VWS V14.01,2013-02-25 11:39:00,
2013-02-25 05:47:00,26.0,23.5,30.08,North,351,9.0,10.0,90,0.00,,SKC,0.00,VWS V14.01,2013-02-25 11:47:00,
2013-02-25 05:55:00,26.0,23.5,30.08,North,5,6.0,10.0,90,0.00,,SKC,0.00,VWS V14.01,2013-02-25 11:55:00,
2013-02-25 05:59:00,26.0,23.5,30.08,North,10,3.0,10.0,90,0.00,,SKC,0.00,VWS V14.01,2013-02-25 11:59:00,
2013-02-25 06:03:00,26.0,23.5,30.08,North,11,6.0,8.0,90,0.00,,SKC,0.00,VWS V14.01,2013-02-25 12:03:00,
2013-02-25 06:07:00,25.9,23.4,30.08,NNE,32,4.0,10.0,90,0.00,,SKC,0.00,VWS V14.01,2013-02-25 12:07:00,
2013-02-25 06:11:00,26.0,23.5,30.09,NNE,18,4.0,10.0,90,0.00,,SKC,0.00,VWS V14.01,2013-02-25 12:11:00,
2013-02-25 06:15:00,26.0,23.5,30.08,North,355,7.0,10.0,90,0.00,,SKC,0.00,VWS V14.01,2013-02-25 12:15:00,
2013-02-25 06:19:00,25.9,23.4,30.09,NNE,27,3.0,10.0,90,0.00,,SKC,0.00,VWS V14.01,2013-02-25 12:19:00,
2013-02-25 06:23:00,25.9,23.4,30.09,North,355,4.0,10.0,90,0.00,,SKC,0.00,VWS V14.01,2013-02-25 12:23:00,
2013-02-25 06:27:00,25.8,23.3,30.08,North,5,9.0,10.0,90,0.00,,SKC,0.00,VWS V14.01,2013-02-25 12:27:00,
2013-02-25 06:29:00,25.8,23.3,30.08,North,351,5.0,11.0,90,0.00,,SKC,0.00,VWS V14.01,2013-02-25 12:29:00,
2013-02-25 06:39:00,25.6,23.1,30.08,NW,323,7.0,10.0,90,0.00,,SKC,0.00,VWS V14.01,2013-02-25 12:39:00,
2013-02-25 06:43:00,25.6,23.1,30.08,North,5,8.0,10.0,90,0.00,,SKC,0.00,VWS V14.01,2013-02-25 12:43:00,
2013-02-25 06:51:00,25.6,23.1,30.08,NE,36,4.0,10.0,90,0.00,,SKC,0.00,VWS V14.01,2013-02-25 12:51:00,
2013-02-25 06:55:00,25.6,23.1,30.08,North,5,6.0,10.0,90,0.00,,SKC,0.00,VWS V14.01,2013-02-25 12:55:00,
2013-02-25 06:59:00,25.6,23.1,30.08,North,360,6.0,7.0,90,0.00,,SKC,0.00,VWS V14.01,2013-02-25 12:59:00,
2013-02-25 07:03:00,25.7,23.2,30.08,North,5,5.0,8.0,90,0.00,,SKC,0.00,VWS V14.01,2013-02-25 13:03:00,
2013-02-25 07:07:00,25.7,23.2,30.08,North,360,7.0,8.0,90,0.00,,SKC,0.00,VWS V14.01,2013-02-25 13:07:00,
2013-02-25 07:11:00,25.8,23.3,30.08,North,355,4.0,8.0,90,0.00,,SKC,0.00,VWS V14.01,2013-02-25 13:11:00,
2013-02-25 07:15:00,25.8,23.3,30.08,North,5,9.0,9.0,90,0.00,,SKC,0.00,VWS V14.01,2013-02-25 13:15:00,
2013-02-25 07:19:00,25.8,23.3,30.09,North,351,8.0,9.0,90,0.00,,SKC,0.00,VWS V14.01,2013-02-25 13:19:00,
2013-02-25 07:27:00,25.9,23.4,30.09,NNW,336,7.0,10.0,90,0.00,,SKC,0.00,VWS V14.01,2013-02-25 13:27:00,
2013-02-25 07:29:00,25.9,23.4,30.10,North,5,8.0,10.0,90,0.00,,SKC,0.00,VWS V14.01,2013-02-25 13:29:00,
2013-02-25 07:32:00,25.9,23.4,30.09,NNE,19,8.0,9.0,90,0.00,,SKC,0.00,VWS V14.01,2013-02-25 13:32:00,
2013-02-25 07:36:00,25.9,23.4,30.10,North,360,6.0,9.0,90,0.00,,SKC,0.00,VWS V14.01,2013-02-25 13:36:00,
2013-02-25 07:44:00,26.0,23.2,30.10,North,355,7.0,9.0,89,0.00,,SKC,0.00,VWS V14.01,2013-02-25 13:44:00,
2013-02-25 07:48:00,26.0,23.2,30.10,NNE,24,5.0,9.0,89,0.00,,SKC,0.00,VWS V14.01,2013-02-25 13:48:00,
2013-02-25 07:52:00,26.1,23.6,30.10,NNE,32,3.0,9.0,90,0.00,,SKC,0.00,VWS V14.01,2013-02-25 13:52:00,
2013-02-25 07:59:00,26.1,23.3,30.10,NNE,20,3.0,10.0,89,0.00,,SKC,0.00,VWS V14.01,2013-02-25 13:59:00,
2013-02-25 08:00:00,26.1,23.3,30.10,NNE,17,5.0,6.0,89,0.00,,SKC,0.00,VWS V14.01,2013-02-25 14:00:00,
2013-02-25 08:08:00,26.2,23.4,30.10,NNE,17,5.0,9.0,89,0.00,,SKC,0.00,VWS V14.01,2013-02-25 14:08:00,
2013-02-25 08:20:00,26.4,23.6,30.10,North,360,6.0,10.0,89,0.00,,SKC,0.00,VWS V14.01,2013-02-25 14:20:00,
2013-02-25 08:24:00,26.4,23.6,30.10,North,5,5.0,10.0,89,0.00,,SKC,0.00,VWS V14.01,2013-02-25 14:24:00,
2013-02-25 08:29:00,26.5,23.7,30.11,North,355,10.0,10.0,89,0.00,,SKC,0.00,VWS V14.01,2013-02-25 14:29:00,
2013-02-25 08:32:00,26.5,23.7,30.11,North,355,7.0,11.0,89,0.00,,SKC,0.00,VWS V14.01,2013-02-25 14:32:00,
2013-02-25 08:36:00,26.5,23.7,30.11,North,355,10.0,11.0,89,0.00,,SKC,0.00,VWS V14.01,2013-02-25 14:36:00,
2013-02-25 08:44:00,26.7,23.9,30.11,North,5,4.0,11.0,89,0.00,,SKC,0.00,VWS V14.01,2013-02-25 14:44:00,
2013-02-25 08:48:00,26.7,23.6,30.11,NE,40,3.0,11.0,88,0.00,,SKC,0.00,VWS V14.01,2013-02-25 14:48:00,
2013-02-25 08:52:00,26.8,24.0,30.11,North,355,5.0,11.0,89,0.00,,SKC,0.00,VWS V14.01,2013-02-25 14:52:00,
2013-02-25 08:59:00,27.0,24.2,30.11,NNE,14,3.0,11.0,89,0.00,,SKC,0.00,VWS V14.01,2013-02-25 14:59:00,
2013-02-25 09:00:00,27.0,24.2,30.11,NNE,18,5.0,5.0,89,0.00,,SKC,0.00,VWS V14.01,2013-02-25 15:00:00,
2013-02-25 09:04:00,27.1,24.0,30.11,North,360,3.0,7.0,88,0.00,,SKC,0.00,VWS V14.01,2013-02-25 15:04:00,
2013-02-25 09:12:00,27.2,24.1,30.10,NNE,24,4.0,10.0,88,0.00,,SKC,0.00,VWS V14.01,2013-02-25 15:12:00,
2013-02-25 09:16:00,27.2,24.1,30.10,North,360,7.0,10.0,88,0.00,,SKC,0.00,VWS V14.01,2013-02-25 15:16:00,
2013-02-25 09:20:00,27.3,24.2,30.10,North,11,8.0,10.0,88,0.00,,SKC,0.00,VWS V14.01,2013-02-25 15:20:00,
2013-02-25 09:28:00,27.3,24.2,30.10,North,360,8.0,12.0,88,0.00,,SKC,0.00,VWS V14.01,2013-02-25 15:28:00,
2013-02-25 09:29:00,27.3,24.2,30.10,NNW,334,7.0,12.0,88,0.00,,SKC,0.00,VWS V14.01,2013-02-25 15:29:00,
2013-02-25 09:32:00,27.4,24.3,30.10,NNE,12,3.0,10.0,88,0.00,,SKC,0.00,VWS V14.01,2013-02-25 15:32:00,
2013-02-25 09:36:00,27.4,24.3,30.10,North,360,10.0,12.0,88,0.00,,SKC,0.00,VWS V14.01,2013-02-25 15:36:00,
2013-02-25 09:40:00,27.3,24.2,30.10,NNE,12,5.0,12.0,88,0.00,,SKC,0.00,VWS V14.01,2013-02-25 15:40:00,
2013-02-25 09:44:00,27.3,24.2,30.10,NNW,331,6.0,13.0,88,0.00,,SKC,0.00,VWS V14.01,2013-02-25 15:44:00,
2013-02-25 09:52:00,27.7,24.6,30.10,NNE,26,7.0,13.0,88,0.00,,SKC,0.00,VWS V14.01,2013-02-25 15:52:00,
2013-02-25 09:59:00,27.9,24.5,30.10,North,5,9.0,13.0,87,0.00,,SKC,0.00,VWS V14.01,2013-02-25 15:59:00,
2013-02-25 10:00:00,27.9,24.5,30.10,North,355,7.0,11.0,87,0.00,,SKC,0.00,VWS V14.01,2013-02-25 16:00:00,
2013-02-25 10:04:00,27.8,24.4,30.10,North,355,9.0,13.0,87,0.00,,SKC,0.00,VWS V14.01,2013-02-25 16:04:00,
2013-02-25 10:12:00,28.1,24.7,30.10,North,9,6.0,13.0,87,0.00,,SKC,0.00,VWS V14.01,2013-02-25 16:12:00,
2013-02-25 10:16:00,28.1,24.7,30.10,NNE,17,4.0,13.0,87,0.00,,SKC,0.00,VWS V14.01,2013-02-25 16:16:00,
2013-02-25 10:20:00,28.2,24.8,30.10,North,5,11.0,13.0,87,0.00,,SKC,0.00,VWS V14.01,2013-02-25 16:20:00,
2013-02-25 10:28:00,28.2,24.8,30.10,NNE,18,9.0,13.0,87,0.00,,SKC,0.00,VWS V14.01,2013-02-25 16:28:00,
2013-02-25 10:29:00,28.3,24.9,30.10,North,360,8.0,13.0,87,0.00,,SKC,0.00,VWS V14.01,2013-02-25 16:29:00,
2013-02-25 10:36:00,28.6,25.2,30.09,NE,42,9.0,13.0,87,0.00,,SKC,0.00,VWS V14.01,2013-02-25 16:36:00,
2013-02-25 10:44:00,28.8,25.1,30.10,North,360,6.0,16.0,86,0.00,,SKC,0.00,VWS V14.01,2013-02-25 16:44:00,
2013-02-25 10:48:00,28.8,25.1,30.09,NNE,32,7.0,16.0,86,0.00,,SKC,0.00,VWS V14.01,2013-02-25 16:48:00,
2013-02-25 10:52:00,28.7,25.0,30.10,NNW,347,11.0,16.0,86,0.00,,SKC,0.00,VWS V14.01,2013-02-25 16:52:00,
2013-02-25 10:56:00,28.6,25.0,30.10,NNE,22,9.0,16.0,86,0.00,,SKC,0.00,VWS V14.01,2013-02-25 16:56:00,
2013-02-25 10:59:00,28.8,25.1,30.09,NE,34,6.0,16.0,86,0.00,,SKC,0.00,VWS V14.01,2013-02-25 16:59:00,
2013-02-25 11:01:00,28.9,25.2,30.09,NNE,15,5.0,10.0,86,0.00,,SKC,0.00,VWS V14.01,2013-02-25 17:01:00,
2013-02-25 11:05:00,29.1,25.2,30.09,North,355,12.0,13.0,85,0.00,,SKC,0.00,VWS V14.01,2013-02-25 17:05:00,
2013-02-25 11:13:00,29.1,25.2,30.09,NNE,15,4.0,14.0,85,0.00,,SKC,0.00,VWS V14.01,2013-02-25 17:13:00,
2013-02-25 11:21:00,29.3,25.4,30.09,North,5,10.0,16.0,85,0.00,,SKC,0.00,VWS V14.01,2013-02-25 17:21:00,
2013-02-25 11:25:00,29.6,25.4,30.08,NNE,21,6.0,16.0,84,0.00,,SKC,0.00,VWS V14.01,2013-02-25 17:25:00,
2013-02-25 11:29:00,29.9,25.7,30.08,North,5,8.0,16.0,84,0.00,,SKC,0.00,VWS V14.01,2013-02-25 17:29:00,
2013-02-25 11:33:00,30.0,26.0,30.08,North,360,10.0,14.0,85,0.00,,SKC,0.00,VWS V14.01,2013-02-25 17:33:00,
2013-02-25 11:37:00,30.3,26.1,30.08,NNW,345,11.0,14.0,84,0.00,,SKC,0.00,VWS V14.01,2013-02-25 17:37:00,
2013-02-25 11:45:00,30.7,26.2,30.07,North,355,9.0,14.0,83,0.00,,SKC,0.00,VWS V14.01,2013-02-25 17:45:00,
2013-02-25 11:49:00,30.7,26.2,30.07,NNW,342,12.0,14.0,83,0.00,,SKC,0.00,VWS V14.01,2013-02-25 17:49:00,
2013-02-25 11:53:00,30.6,26.1,30.07,North,360,11.0,15.0,83,0.00,,SKC,0.00,VWS V14.01,2013-02-25 17:53:00,
2013-02-25 11:57:00,30.7,26.2,30.07,NNE,13,9.0,15.0,83,0.00,,SKC,0.00,VWS V14.01,2013-02-25 17:57:00,
2013-02-25 11:59:00,30.7,26.2,30.07,North,5,7.0,17.0,83,0.00,,SKC,0.00,VWS V14.01,2013-02-25 17:59:00,
2013-02-25 12:01:00,30.7,25.9,30.07,North,5,11.0,18.0,82,0.00,,SKC,0.00,VWS V14.01,2013-02-25 18:01:00,
2013-02-25 12:05:00,31.0,26.2,30.07,North,355,11.0,18.0,82,0.00,,SKC,0.00,VWS V14.01,2013-02-25 18:05:00,
2013-02-25 12:09:00,31.0,26.2,30.07,NNW,344,11.0,18.0,82,0.00,,SKC,0.00,VWS V14.01,2013-02-25 18:09:00,
2013-02-25 12:17:00,30.8,26.0,30.06,North,5,8.0,18.0,82,0.00,,SKC,0.00,VWS V14.01,2013-02-25 18:17:00,
2013-02-25 12:21:00,30.8,26.3,30.06,North,5,15.0,18.0,83,0.00,,SKC,0.00,VWS V14.01,2013-02-25 18:21:00,
2013-02-25 12:29:00,30.6,26.1,30.05,NNE,13,11.0,20.0,83,0.00,,SKC,0.00,VWS V14.01,2013-02-25 18:29:00,
2013-02-25 12:33:00,30.8,26.5,30.05,NE,36,8.0,14.0,84,0.00,,SKC,0.00,VWS V14.01,2013-02-25 18:33:00,
2013-02-25 12:41:00,31.3,27.0,30.05,NNE,32,3.0,14.0,84,0.00,,SKC,0.00,VWS V14.01,2013-02-25 18:41:00,
2013-02-25 12:49:00,31.1,26.5,30.05,NNE,18,4.0,14.0,83,0.00,,SKC,0.00,VWS V14.01,2013-02-25 18:49:00,
2013-02-25 12:57:00,31.4,26.8,30.04,NNE,27,5.0,14.0,83,0.00,,SKC,0.00,VWS V14.01,2013-02-25 18:57:00,
2013-02-25 13:01:00,31.4,26.8,30.04,ENE,68,7.0,12.0,83,0.00,,SKC,0.00,VWS V14.01,2013-02-25 19:01:00,
2013-02-25 13:05:00,31.4,26.8,30.04,North,355,10.0,12.0,83,0.00,,SKC,0.00,VWS V14.01,2013-02-25 19:05:00,
2013-02-25 13:13:00,31.7,27.4,30.04,North,10,12.0,12.0,84,0.00,,SKC,0.00,VWS V14.01,2013-02-25 19:13:00,
2013-02-25 13:17:00,31.7,27.1,30.04,NNE,16,8.0,16.0,83,0.00,,SKC,0.00,VWS V14.01,2013-02-25 19:17:00,
2013-02-25 13:25:00,31.9,27.3,30.03,NNE,19,9.0,16.0,83,0.00,,SKC,0.00,VWS V14.01,2013-02-25 19:25:00,
2013-02-25 13:29:00,31.7,26.8,30.03,NNE,13,8.0,19.0,82,0.00,,SKC,0.00,VWS V14.01,2013-02-25 19:29:00,
2013-02-25 13:33:00,31.7,27.1,30.03,NNE,22,7.0,15.0,83,0.00,,SKC,0.00,VWS V14.01,2013-02-25 19:33:00,
2013-02-25 13:41:00,32.1,27.5,30.03,North,5,8.0,16.0,83,0.00,,SKC,0.00,VWS V14.01,2013-02-25 19:41:00,
2013-02-25 13:49:00,32.0,27.4,30.03,North,360,15.0,17.0,83,0.00,,SKC,0.00,VWS V14.01,2013-02-25 19:49:00,
2013-02-25 13:53:00,32.1,27.5,30.03,NNE,16,10.0,17.0,83,0.00,,SKC,0.00,VWS V14.01,2013-02-25 19:53:00,
2013-02-25 13:59:00,32.2,27.6,30.03,NE,35,7.0,17.0,83,0.00,,SKC,0.00,VWS V14.01,2013-02-25 19:59:00,
2013-02-25 14:01:00,32.3,27.7,30.03,ENE,69,7.0,12.0,83,0.00,,SKC,0.00,VWS V14.01,2013-02-25 20:01:00,
2013-02-25 14:09:00,32.4,27.8,30.03,NNE,24,9.0,13.0,83,0.00,,SKC,0.00,VWS V14.01,2013-02-25 20:09:00,
2013-02-25 14:13:00,32.4,27.5,30.03,NE,35,5.0,13.0,82,0.00,,SKC,0.00,VWS V14.01,2013-02-25 20:13:00,
2013-02-25 14:17:00,32.7,28.1,30.03,NNE,24,8.0,13.0,83,0.00,,SKC,0.00,VWS V14.01,2013-02-25 20:17:00,
2013-02-25 14:21:00,32.7,27.5,30.03,NNW,342,9.0,16.0,81,0.00,,SKC,0.00,VWS V14.01,2013-02-25 20:21:00,
2013-02-25 14:29:00,32.7,27.5,30.02,North,10,12.0,16.0,81,0.00,,SKC,0.00,VWS V14.01,2013-02-25 20:29:00,
2013-02-25 14:37:00,32.7,27.5,30.02,NNE,31,9.0,17.0,81,0.00,,SKC,0.00,VWS V14.01,2013-02-25 20:37:00,
2013-02-25 14:41:00,32.9,28.0,30.02,NNE,30,7.0,17.0,82,0.00,,SKC,0.00,VWS V14.01,2013-02-25 20:41:00,
2013-02-25 14:49:00,33.1,27.9,30.02,North,355,6.0,17.0,81,0.00,,SKC,0.00,VWS V14.01,2013-02-25 20:49:00,
2013-02-25 14:53:00,33.2,27.7,30.02,North,355,11.0,17.0,80,0.00,,SKC,0.00,VWS V14.01,2013-02-25 20:53:00,
2013-02-25 14:57:00,33.0,27.8,30.02,North,5,10.0,17.0,81,0.00,,SKC,0.00,VWS V14.01,2013-02-25 20:57:00,
2013-02-25 14:59:00,33.1,27.9,30.02,NNE,24,6.0,17.0,81,0.00,,SKC,0.00,VWS V14.01,2013-02-25 20:59:00,
2013-02-25 15:05:00,33.2,28.3,30.01,NNE,24,9.0,15.0,82,0.00,,SKC,0.00,VWS V14.01,2013-02-25 21:05:00,
2013-02-25 15:13:00,33.0,27.8,30.01,North,355,10.0,15.0,81,0.00,,SKC,0.00,VWS V14.01,2013-02-25 21:13:00,
2013-02-25 15:21:00,32.8,27.6,30.01,NW,323,14.0,17.0,81,0.00,,SKC,0.00,VWS V14.01,2013-02-25 21:21:00,
2013-02-25 15:25:00,32.7,27.5,30.01,North,9,9.0,17.0,81,0.00,,SKC,0.00,VWS V14.01,2013-02-25 21:25:00,
2013-02-25 15:29:00,32.7,27.5,30.01,NE,53,12.0,17.0,81,0.00,,SKC,0.00,VWS V14.01,2013-02-25 21:29:00,
2013-02-25 15:33:00,32.6,27.1,30.01,NNE,32,12.0,17.0,80,0.00,,SKC,0.00,VWS V14.01,2013-02-25 21:33:00,
2013-02-25 15:37:00,32.7,27.5,30.01,North,5,8.0,17.0,81,0.00,,SKC,0.00,VWS V14.01,2013-02-25 21:37:00,
2013-02-25 15:41:00,32.8,27.6,30.01,North,355,8.0,17.0,81,0.00,,SKC,0.00,VWS V14.01,2013-02-25 21:41:00,
2013-02-25 15:49:00,32.5,27.3,30.01,North,5,7.0,17.0,81,0.00,,SKC,0.00,VWS V14.01,2013-02-25 21:49:00,
2013-02-25 15:57:00,32.5,27.3,30.00,North,5,15.0,18.0,81,0.00,,SKC,0.00,VWS V14.01,2013-02-25 21:57:00,
2013-02-25 15:59:00,32.5,27.3,30.00,NNE,28,7.0,18.0,81,0.00,,SKC,0.00,VWS V14.01,2013-02-25 21:59:00,
2013-02-25 16:05:00,32.5,27.3,30.00,North,5,12.0,17.0,81,0.00,,SKC,0.00,VWS V14.01,2013-02-25 22:05:00,
2013-02-25 16:09:00,32.4,27.2,30.00,North,5,13.0,17.0,81,0.00,,SKC,0.00,VWS V14.01,2013-02-25 22:09:00,
2013-02-25 16:17:00,32.3,27.7,30.00,North,5,8.0,17.0,83,0.00,,SKC,0.00,VWS V14.01,2013-02-25 22:17:00,
2013-02-25 16:25:00,32.2,27.6,30.00,North,5,10.0,17.0,83,0.00,,SKC,0.00,VWS V14.01,2013-02-25 22:25:00,
2013-02-25 16:29:00,32.2,27.3,30.00,North,360,7.0,17.0,82,0.00,,SKC,0.00,VWS V14.01,2013-02-25 22:29:00,
2013-02-25 16:33:00,32.2,27.3,30.00,NNE,16,8.0,15.0,82,0.00,,SKC,0.00,VWS V14.01,2013-02-25 22:33:00,
2013-02-25 16:37:00,32.2,27.3,30.00,NNE,21,8.0,15.0,82,0.00,,SKC,0.00,VWS V14.01,2013-02-25 22:37:00,
2013-02-25 16:41:00,32.2,27.6,30.00,NNE,21,6.0,15.0,83,0.00,,SKC,0.00,VWS V14.01,2013-02-25 22:41:00,
2013-02-25 16:45:00,32.2,27.3,30.00,North,355,12.0,15.0,82,0.00,,SKC,0.00,VWS V14.01,2013-02-25 22:45:00,
2013-02-25 16:49:00,32.1,27.5,30.00,NNW,337,8.0,15.0,83,0.00,,SKC,0.00,VWS V14.01,2013-02-25 22:49:00,
2013-02-25 16:53:00,31.9,27.3,30.00,North,5,10.0,15.0,83,0.00,,SKC,0.00,VWS V14.01,2013-02-25 22:53:00,
2013-02-25 16:59:00,31.7,27.4,30.00,North,360,9.0,15.0,84,0.00,,SKC,0.00,VWS V14.01,2013-02-25 22:59:00,
2013-02-25 17:02:00,31.7,27.4,30.00,North,360,8.0,12.0,84,0.00,,SKC,0.00,VWS V14.01,2013-02-25 23:02:00,
2013-02-25 17:06:00,31.7,27.4,30.00,NNE,32,7.0,14.0,84,0.00,,SKC,0.00,VWS V14.01,2013-02-25 23:06:00,
2013-02-25 17:10:00,31.7,27.4,30.00,North,360,8.0,14.0,84,0.00,,SKC,0.00,VWS V14.01,2013-02-25 23:10:00,
2013-02-25 17:14:00,31.7,27.4,30.00,North,360,7.0,14.0,84,0.00,,SKC,0.00,VWS V14.01,2013-02-25 23:14:00,
2013-02-25 17:18:00,31.7,27.7,30.00,North,360,6.0,14.0,85,0.00,,SKC,0.00,VWS V14.01,2013-02-25 23:18:00,
2013-02-25 17:22:00,31.7,27.7,30.00,NNE,23,4.0,14.0,85,0.00,,SKC,0.00,VWS V14.01,2013-02-25 23:22:00,
2013-02-25 17:26:00,31.7,27.7,30.00,NE,34,4.0,14.0,85,0.00,,SKC,0.00,VWS V14.01,2013-02-25 23:26:00,
2013-02-25 17:29:00,31.7,27.7,30.00,North,5,5.0,14.0,85,0.00,,SKC,0.00,VWS V14.01,2013-02-25 23:29:00,
2013-02-25 17:30:00,31.7,27.7,30.00,NNW,348,7.0,7.0,85,0.00,,SKC,0.00,VWS V14.01,2013-02-25 23:30:00,
2013-02-25 17:34:00,31.6,27.9,30.00,NE,40,8.0,11.0,86,0.00,,SKC,0.00,VWS V14.01,2013-02-25 23:34:00,
2013-02-25 17:42:00,31.5,27.8,30.00,NNE,24,10.0,11.0,86,0.00,,SKC,0.00,VWS V14.01,2013-02-25 23:42:00,
2013-02-25 17:46:00,31.4,27.7,30.00,NNW,342,6.0,11.0,86,0.00,,SKC,0.00,VWS V14.01,2013-02-25 23:46:00,
2013-02-25 17:54:00,31.3,27.6,29.99,NE,50,5.0,12.0,86,0.00,,SKC,0.00,VWS V14.01,2013-02-25 23:54:00,
2013-02-25 17:59:00,31.2,27.8,29.99,NNE,21,5.0,15.0,87,0.00,,SKC,0.00,VWS V14.01,2013-02-25 23:59:00,
2013-02-25 18:02:00,31.1,27.7,29.99,North,355,7.0,11.0,87,0.00,,SKC,0.00,VWS V14.01,2013-02-26 00:02:00,
2013-02-25 18:06:00,31.1,27.7,29.99,North,5,8.0,12.0,87,0.00,,SKC,0.00,VWS V14.01,2013-02-26 00:06:00,
2013-02-25 18:14:00,31.0,27.9,29.98,North,10,5.0,13.0,88,0.00,,SKC,0.00,VWS V14.01,2013-02-26 00:14:00,
2013-02-25 18:18:00,30.9,27.5,29.98,North,355,13.0,14.0,87,0.00,,SKC,0.00,VWS V14.01,2013-02-26 00:18:00,
2013-02-25 18:26:00,30.8,27.7,29.98,NE,39,6.0,15.0,88,0.00,,SKC,0.00,VWS V14.01,2013-02-26 00:26:00,
2013-02-25 18:29:00,30.7,27.6,29.98,NNW,335,10.0,15.0,88,0.00,,SKC,0.00,VWS V14.01,2013-02-26 00:29:00,
2013-02-25 18:34:00,30.6,27.5,29.98,North,355,13.0,14.0,88,0.00,,SKC,0.00,VWS V14.01,2013-02-26 00:34:00,
2013-02-25 18:42:00,30.4,27.3,29.98,North,351,8.0,18.0,88,0.00,,SKC,0.00,VWS V14.01,2013-02-26 00:42:00,
2013-02-25 18:46:00,30.3,27.2,29.98,North,360,15.0,18.0,88,0.00,,SKC,0.00,VWS V14.01,2013-02-26 00:46:00,
2013-02-25 18:54:00,30.1,27.0,29.98,NNE,24,16.0,21.0,88,0.00,,SKC,0.00,VWS V14.01,2013-02-26 00:54:00,
2013-02-25 18:58:00,30.0,27.2,29.98,North,5,15.0,21.0,89,0.00,,SKC,0.00,VWS V14.01,2013-02-26 00:58:00,
2013-02-25 18:59:00,29.9,27.1,29.97,NNE,17,10.0,21.0,89,0.00,,SKC,0.00,VWS V14.01,2013-02-26 00:59:00,
2013-02-25 19:06:00,29.8,27.0,29.97,North,360,9.0,20.0,89,0.00,,SKC,0.00,VWS V14.01,2013-02-26 01:06:00,
2013-02-25 19:10:00,29.7,26.9,29.97,North,5,18.0,21.0,89,0.00,,SKC,0.00,VWS V14.01,2013-02-26 01:10:00,
2013-02-25 19:14:00,29.6,26.8,29.97,North,5,8.0,21.0,89,0.00,,SKC,0.00,VWS V14.01,2013-02-26 01:14:00,
2013-02-25 19:18:00,29.6,26.8,29.98,North,355,18.0,21.0,89,0.00,,SKC,0.00,VWS V14.01,2013-02-26 01:18:00,
2013-02-25 19:22:00,29.5,26.7,29.98,North,360,10.0,21.0,89,0.00,,SKC,0.00,VWS V14.01,2013-02-26 01:22:00,
2013-02-25 19:26:00,29.4,26.6,29.98,North,355,8.0,21.0,89,0.00,,SKC,0.00,VWS V14.01,2013-02-26 01:26:00,
2013-02-25 19:29:00,29.3,26.5,29.98,North,355,13.0,21.0,89,0.00,,SKC,0.00,VWS V14.01,2013-02-26 01:29:00,
2013-02-25 19:34:00,29.2,26.4,29.97,NNE,29,13.0,17.0,89,0.00,,SKC,0.00,VWS V14.01,2013-02-26 01:34:00,
2013-02-25 19:38:00,29.1,26.3,29.97,North,360,13.0,17.0,89,0.00,,SKC,0.00,VWS V14.01,2013-02-26 01:38:00,
2013-02-25 19:46:00,28.9,26.3,29.97,North,5,11.0,17.0,90,0.00,,SKC,0.00,VWS V14.01,2013-02-26 01:46:00,
2013-02-25 19:50:00,28.9,26.3,29.97,North,11,7.0,17.0,90,0.00,,SKC,0.00,VWS V14.01,2013-02-26 01:50:00,
2013-02-25 19:58:00,28.9,26.3,29.97,North,355,11.0,17.0,90,0.00,,SKC,0.00,VWS V14.01,2013-02-26 01:58:00,
2013-02-25 20:02:00,28.8,26.2,29.96,NNE,27,7.0,15.0,90,0.00,,SKC,0.00,VWS V14.01,2013-02-26 02:02:00,
2013-02-25 20:06:00,28.7,26.1,29.96,North,5,8.0,15.0,90,0.00,,SKC,0.00,VWS V14.01,2013-02-26 02:06:00,
2013-02-25 20:10:00,28.7,26.1,29.96,North,5,7.0,15.0,90,0.00,,SKC,0.00,VWS V14.01,2013-02-26 02:10:00,
2013-02-25 20:18:00,28.6,26.0,29.95,North,360,7.0,15.0,90,0.00,,SKC,0.00,VWS V14.01,2013-02-26 02:18:00,
2013-02-25 20:22:00,28.6,26.0,29.95,NNE,15,7.0,15.0,90,0.00,,SKC,0.00,VWS V14.01,2013-02-26 02:22:00,
2013-02-25 20:29:00,28.5,26.0,29.95,NE,54,7.0,15.0,90,0.00,,SKC,0.00,VWS V14.01,2013-02-26 02:29:00,
2013-02-25 20:30:00,28.5,26.0,29.95,NE,39,7.0,10.0,90,0.00,,SKC,0.00,VWS V14.01,2013-02-26 02:30:00,
2013-02-25 20:38:00,28.4,25.9,29.94,North,355,9.0,13.0,90,0.00,,SKC,0.00,VWS V14.01,2013-02-26 02:38:00,
2013-02-25 20:46:00,28.3,25.8,29.94,North,5,7.0,16.0,90,0.00,,SKC,0.00,VWS V14.01,2013-02-26 02:46:00,
2013-02-25 20:50:00,28.3,25.8,29.94,North,5,9.0,16.0,90,0.00,,SKC,0.00,VWS V14.01,2013-02-26 02:50:00,
2013-02-25 20:54:00,28.3,25.8,29.94,North,5,11.0,17.0,90,0.00,,SKC,0.00,VWS V14.01,2013-02-26 02:54:00,
2013-02-25 20:59:00,28.2,25.6,29.94,North,360,7.0,17.0,90,0.00,,SKC,0.00,VWS V14.01,2013-02-26 02:59:00,
2013-02-25 21:02:00,28.2,25.6,29.93,North,5,15.0,17.0,90,0.00,,SKC,0.00,VWS V14.01,2013-02-26 03:02:00,
2013-02-25 21:06:00,28.1,25.5,29.93,NE,34,14.0,19.0,90,0.00,,SKC,0.00,VWS V14.01,2013-02-26 03:06:00,
2013-02-25 21:14:00,28.0,25.5,29.93,NNE,22,20.0,20.0,90,0.00,,SKC,0.00,VWS V14.01,2013-02-26 03:14:00,
2013-02-25 21:18:00,27.9,25.4,29.95,NNE,12,7.0,20.0,90,0.00,,SKC,0.00,VWS V14.01,2013-02-26 03:18:00,
2013-02-25 21:22:00,27.8,25.2,29.95,NE,41,8.0,20.0,90,0.00,,SKC,0.00,VWS V14.01,2013-02-26 03:22:00,
2013-02-25 21:29:00,27.8,25.2,29.96,North,5,11.0,20.0,90,0.00,,SKC,0.00,VWS V14.01,2013-02-26 03:29:00,
2013-02-25 21:30:00,27.7,25.2,29.96,NNW,337,12.0,15.0,90,0.00,,SKC,0.00,VWS V14.01,2013-02-26 03:30:00,
2013-02-25 21:38:00,27.7,25.2,29.95,North,355,9.0,17.0,90,0.00,,SKC,0.00,VWS V14.01,2013-02-26 03:38:00,
2013-02-25 21:46:00,27.6,25.1,29.95,NNE,22,10.0,17.0,90,0.00,,SKC,0.00,VWS V14.01,2013-02-26 03:46:00,
2013-02-25 21:50:00,27.5,25.0,29.95,North,10,16.0,18.0,90,0.00,,SKC,0.00,VWS V14.01,2013-02-26 03:50:00,
2013-02-25 21:54:00,27.5,25.0,29.95,North,360,12.0,18.0,90,0.00,,SKC,0.00,VWS V14.01,2013-02-26 03:54:00,
2013-02-25 21:58:00,27.5,25.2,29.96,NNW,343,6.0,18.0,91,0.00,,SKC,0.00,VWS V14.01,2013-02-26 03:58:00,
2013-02-25 21:59:00,27.5,25.0,29.96,NE,36,10.0,18.0,90,0.00,,SKC,0.00,VWS V14.01,2013-02-26 03:59:00,
2013-02-25 22:06:00,27.5,25.2,29.96,NNE,31,7.0,16.0,91,0.00,,SKC,0.00,VWS V14.01,2013-02-26 04:06:00,
2013-02-25 22:10:00,27.5,25.2,29.96,NE,40,9.0,16.0,91,0.00,,SKC,0.00,VWS V14.01,2013-02-26 04:10:00,
2013-02-25 22:18:00,27.5,25.2,29.96,NNE,22,6.0,16.0,91,0.00,,SKC,0.00,VWS V14.01,2013-02-26 04:18:00,
2013-02-25 22:26:00,27.5,25.2,29.97,NNE,26,6.0,16.0,91,0.00,,SKC,0.00,VWS V14.01,2013-02-26 04:26:00,
2013-02-25 22:29:00,27.5,25.2,29.97,NE,43,6.0,16.0,91,0.00,,SKC,0.00,VWS V14.01,2013-02-26 04:29:00,
2013-02-25 22:34:00,27.6,25.3,29.98,NNE,26,5.0,9.0,91,0.00,,SKC,0.00,VWS V14.01,2013-02-26 04:34:00,
2013-02-25 22:42:00,27.5,25.2,29.98,NE,42,5.0,9.0,91,0.00,,SKC,0.00,VWS V14.01,2013-02-26 04:42:00,
2013-02-25 22:46:00,27.4,25.1,29.98,NE,35,9.0,11.0,91,0.00,,SKC,0.00,VWS V14.01,2013-02-26 04:46:00,
2013-02-25 22:50:00,27.3,25.0,29.98,NE,41,6.0,11.0,91,0.00,,SKC,0.00,VWS V14.01,2013-02-26 04:50:00,
2013-02-25 22:54:00,27.3,25.0,29.98,NNE,18,5.0,11.0,91,0.00,,SKC,0.00,VWS V14.01,2013-02-26 04:54:00,
2013-02-25 22:59:00,27.3,25.0,29.98,NE,37,6.0,11.0,91,0.00,,SKC,0.00,VWS V14.01,2013-02-26 04:59:00,
2013-02-25 23:02:00,27.3,25.0,29.97,NNE,31,8.0,10.0,91,0.00,,SKC,0.00,VWS V14.01,2013-02-26 05:02:00,
2013-02-25 23:06:00,27.3,25.3,29.98,NE,51,7.0,10.0,92,0.00,,SKC,0.00,VWS V14.01,2013-02-26 05:06:00,
2013-02-25 23:10:00,27.2,25.2,29.98,NE,46,3.0,10.0,92,0.00,,SKC,0.00,VWS V14.01,2013-02-26 05:10:00,
2013-02-25 23:18:00,27.2,25.2,29.98,NE,40,2.0,10.0,92,0.00,,SKC,0.00,VWS V14.01,2013-02-26 05:18:00,
2013-02-25 23:22:00,27.2,25.2,29.97,NNE,24,4.0,10.0,92,0.00,,SKC,0.00,VWS V14.01,2013-02-26 05:22:00,
2013-02-25 23:26:00,27.1,25.1,29.97,North,5,4.0,10.0,92,0.00,,SKC,0.00,VWS V14.01,2013-02-26 05:26:00,
2013-02-25 23:30:00,27.0,25.0,29.97,NNE,22,4.0,9.0,92,0.00,,SKC,0.00,VWS V14.01,2013-02-26 05:30:00,
2013-02-25 23:38:00,27.0,25.0,29.97,North,11,6.0,11.0,92,0.00,,SKC,0.00,VWS V14.01,2013-02-26 05:38:00,
2013-02-25 23:46:00,27.0,25.0,29.96,North,355,5.0,13.0,92,0.00,,SKC,0.00,VWS V14.01,2013-02-26 05:46:00,
2013-02-25 23:51:00,27.0,25.0,29.96,North,360,9.0,13.0,92,0.00,,SKC,0.00,VWS V14.01,2013-02-26 05:51:00,
2013-02-25 23:55:00,26.9,24.9,29.96,North,360,10.0,13.0,92,0.00,,SKC,0.00,VWS V14.01,2013-02-26 05:55:00,
2013-02-25 23:59:00,26.9,24.9,29.95,North,360,9.0,13.0,92,0.00,,SKC,0.00,VWS V14.01,2013-02-26 05:59:00,